Rockford, IL

3:44 PM CDT on March 27, 2017 (GMT -0500)
Greater Rockford

Weather History for KRFD - June, 2013

Change the Weather History Date:

Saturday, June 22, 2013

  Actual Average Record
Temperature  
Mean Temperature 73 °F 72 °F  
Max Temperature 81 °F 83 °F 97 °F (1923)
Min Temperature 65 °F 61 °F 45 °F (1992)
Degree Days  
Heating Degree Days 0 0  
Month to date heating degree days 34 29  
Since 1 June heating degree days 34 29  
Since 1 July heating degree days 6578 6567  
Cooling Degree Days 8 7  
Month to date cooling degree days 97 111  
Year to date cooling degree days 189 166  
Since 1 June cooling degree days 97 111  
Growing Degree Days 22 (Base 50)    
Moisture  
Dew Point 68 °F    
Average Humidity 85    
Maximum Humidity 100    
Minimum Humidity 69    
Precipitation  
Precipitation 2.36 in 0.15 in 2.36 in (2013)
Month to date precipitation 4.44 3.51  
Year to date precipitation 23.88 15.98  
Snow  
Snow 0.00 in 0.00 in 0.00 in ()
Month to date snowfall 0.0 0.0  
Since 1 June snowfall 0.0 0.0  
Since 1 July snowfall 40.5 36.7  
Snow Depth 0.00 in    
Sea Level Pressure  
Sea Level Pressure 30.03 in    
Wind  
Wind Speed 10 mph (SSE)    
Max Wind Speed 43 mph    
Max Gust Speed 53 mph    
Visibility 8 miles    
Events Rain , Thunderstorm    
T = Trace of Precipitation, MM = Missing Value Source: NWS Daily Summary

Daily Weather History Graph

Daily Weather History Graph

Search for Another Location

Airport or City:

Trip Planner

Search our weather history database for the weather conditions in past years. The results will help you decide how hot, cold, wet, or windy it might be!

Date:

Astronomy

Jun. 22, 2013 Rise Set
Actual Time 5:20 AM CDT 8:36 PM CDT
Civil Twilight 4:45 AM CDT 9:11 PM CDT
Nautical Twilight 4:01 AM CDT 9:55 PM CDT
Astronomical Twilight 3:06 AM CDT 10:50 PM CDT
Moon 7:49 PM CDT (6/22) 4:34 AM CDT (6/22)
Length of Visible Light 16h 25m
Length of Day
15h 15m
Waxing Gibbous, 99% of the Moon is Illuminated
Jun 22
Waxing Gibbous
Jun 23
Full
Jun 29
Last Quarter
Jul 8
New
Jul 15
First Quarter

Hourly Weather History & Observations

Time (CDT) Temp. Heat Index Dew Point Humidity Pressure Visibility Wind Dir Wind Speed Gust Speed Precip Events Conditions
12:30 AM 71.6 °F - 68.0 °F 88% 30.00 in 10.0 mi South 9.2 mph - N/A   Overcast
12:54 AM 72.0 °F - 68.0 °F 87% 29.98 in 10.0 mi South 9.2 mph - N/A   Overcast
1:40 AM 71.6 °F - 64.4 °F 78% 30.05 in 10.0 mi NNE 39.1 mph 47.2 mph N/A Thunderstorm Thunderstorm
1:54 AM 66.9 °F - 64.0 °F 90% 30.06 in 3.0 mi NE 33.4 mph 50.6 mph 0.03 in Rain , Thunderstorm Thunderstorms and Rain
2:01 AM 66.2 °F - 64.4 °F 94% 30.06 in 3.0 mi NNE 16.1 mph 23.0 mph 0.05 in Rain , Thunderstorm Light Thunderstorms and Rain
2:32 AM 64.4 °F - 64.4 °F 100% 30.05 in 2.0 mi NE 19.6 mph 34.5 mph 0.78 in Rain , Thunderstorm Light Thunderstorms and Rain
2:54 AM 66.0 °F - 64.9 °F 96% 30.03 in 4.0 mi SE 4.6 mph - 1.06 in Rain , Thunderstorm Light Thunderstorms and Rain
3:54 AM 66.0 °F - 64.9 °F 96% 30.04 in 7.0 mi West 3.5 mph - 0.22 in Rain , Thunderstorm Light Thunderstorms and Rain
4:20 AM 66.2 °F - 64.4 °F 94% 30.07 in 2.5 mi NNW 6.9 mph - 0.13 in Rain , Thunderstorm Light Thunderstorms and Rain
4:28 AM 66.2 °F - 64.4 °F 94% 30.09 in 2.5 mi WNW 6.9 mph - 0.18 in Rain , Thunderstorm Light Thunderstorms and Rain
4:54 AM 66.0 °F - 66.0 °F 100% 30.06 in 4.0 mi Calm Calm - 0.32 in Rain , Thunderstorm Light Thunderstorms and Rain
5:54 AM 68.0 °F - 64.9 °F 90% 30.08 in 9.0 mi ESE 6.9 mph - 0.48 in Rain , Thunderstorm Light Thunderstorms and Rain
6:54 AM 68.0 °F - 64.9 °F 90% 30.10 in 8.0 mi ESE 4.6 mph - 0.12 in Rain , Thunderstorm Light Thunderstorms and Rain
7:16 AM 66.2 °F - 66.2 °F 100% 30.07 in 5.0 mi SSE 3.5 mph - 0.08 in Rain Light Rain
7:54 AM 69.1 °F - 66.0 °F 90% 30.03 in 10.0 mi ESE 6.9 mph - 0.10 in   Overcast
8:54 AM 71.1 °F - 66.0 °F 84% 30.06 in 10.0 mi Calm Calm - N/A   Overcast
9:54 AM 73.0 °F - 68.0 °F 84% 30.14 in 10.0 mi WNW 19.6 mph 28.8 mph N/A   Overcast
10:54 AM 73.0 °F - 66.9 °F 81% 30.05 in 10.0 mi NNE 18.4 mph - 0.03 in Rain Light Rain
11:54 AM 73.9 °F - 66.9 °F 79% 30.02 in 10.0 mi SE 10.4 mph - 0.00 in   Overcast
12:54 PM 77.0 °F - 66.9 °F 71% 30.03 in 10.0 mi SE 15.0 mph - N/A   Mostly Cloudy
1:54 PM 77.0 °F - 68.0 °F 74% 30.03 in 10.0 mi SSE 11.5 mph - N/A   Mostly Cloudy
2:54 PM 79.0 °F - 72.0 °F 79% 30.01 in 10.0 mi South 10.4 mph - N/A   Overcast
3:54 PM 80.1 °F 84.5 °F 73.9 °F 81% 29.95 in 10.0 mi South 17.3 mph - N/A   Overcast
4:54 PM 81.0 °F 86.7 °F 75.0 °F 82% 29.95 in 8.0 mi South 10.4 mph 28.8 mph N/A   Overcast
5:54 PM 81.0 °F 85.8 °F 73.0 °F 77% 29.95 in 9.0 mi South 16.1 mph - N/A   Overcast
6:54 PM 79.0 °F - 73.0 °F 82% 29.96 in 10.0 mi South 13.8 mph - N/A   Overcast
7:54 PM 77.0 °F - 72.0 °F 84% 29.96 in 10.0 mi South 10.4 mph - N/A   Overcast
8:54 PM 73.9 °F - 69.1 °F 85% 29.97 in 10.0 mi South 10.4 mph - N/A   Mostly Cloudy
9:54 PM 72.0 °F - 69.1 °F 91% 30.00 in 10.0 mi SSE 9.2 mph - N/A   Scattered Clouds
10:54 PM 71.1 °F - 68.0 °F 90% 30.01 in 10.0 mi South 10.4 mph - N/A   Mostly Cloudy
11:54 PM 70.0 °F - 66.9 °F 90% 30.03 in 10.0 mi South 3.5 mph - N/A   Mostly Cloudy